owner,sensor,date,latitude,longitude,vertical_datum,direction_of_sea_water_velocity,sea_water_speed,upward_sea_water_velocity,qcFlag 
TABS,ioos:station:wmo:42051:1,2009-09-01T00:00:00Z,29.6350,-93.6417,2.0,279.0185457,22.90311114,-99999.0,'11111222,11111222,99999999' 
TABS,ioos:station:wmo:42051:1,2009-09-01T00:30:00Z,29.6350,-93.6417,2.0,275.4298044,19.8691419,-99999.0,'11111222,11111222,99999999' 
TABS,ioos:station:wmo:42051:1,2009-09-01T01:00:00Z,29.6350,-93.6417,2.0,298.5828178,22.86678814,-99999.0,'11111222,11111222,99999999' 
TABS,ioos:station:wmo:42051:1,2009-09-01T01:30:00Z,29.6350,-93.6417,2.0,312.768747,26.3314128,-99999.0,'11111222,11111222,99999999' 
TABS,ioos:station:wmo:42051:1,2009-09-01T02:00:00Z,29.6350,-93.6417,2.0,301.3223364,22.21807597,-99999.0,'11111222,11111222,99999999' 
TABS,ioos:station:wmo:42051:1,2009-09-01T02:30:00Z,29.6350,-93.6417,2.0,304.948039,22.24051483,-99999.0,'11111222,11111222,99999999' 
TABS,ioos:station:wmo:42051:1,2009-09-01T03:00:00Z,29.6350,-93.6417,2.0,314.8283511,25.91558026,-99999.0,'11111222,11111222,99999999' 
TABS,ioos:station:wmo:42051:1,2009-09-01T03:30:00Z,29.6350,-93.6417,2.0,315.8836246,26.14484462,-99999.0,'11111222,11111222,99999999' 
TABS,ioos:station:wmo:42051:1,2009-09-01T04:00:00Z,29.6350,-93.6417,2.0,318.369534,17.20536254,-99999.0,'11111222,11111222,99999999' 
TABS,ioos:station:wmo:42051:1,2009-09-01T04:30:00Z,29.6350,-93.6417,2.0,324.3323717,22.50095109,-99999.0,'11111222,11111222,99999999' 
TABS,ioos:station:wmo:42051:1,2009-09-01T05:00:00Z,29.6350,-93.6417,2.0,327.2591027,23.11197958,-99999.0,'11111222,11111222,99999999' 
TABS,ioos:station:wmo:42051:1,2009-09-01T05:30:00Z,29.6350,-93.6417,2.0,305.6947148,21.2524728,-99999.0,'11111222,11111222,99999999' 
TABS,ioos:station:wmo:42051:1,2009-09-01T06:00:00Z,29.6350,-93.6417,2.0,286.3104524,24.8188094,-99999.0,'11111222,11111222,99999999' 
TABS,ioos:station:wmo:42051:1,2009-09-01T06:30:00Z,29.6350,-93.6417,2.0,281.5329132,27.26034849,-99999.0,'11111222,11111222,99999999' 
TABS,ioos:station:wmo:42051:1,2009-09-01T07:00:00Z,29.6350,-93.6417,2.0,280.560269,33.5583462,-99999.0,'11111222,11111222,99999999' 
TABS,ioos:station:wmo:42051:1,2009-09-01T07:30:00Z,29.6350,-93.6417,2.0,275.3711481,38.24791236,-99999.0,'11111222,11111222,99999999' 
TABS,ioos:station:wmo:42051:1,2009-09-01T08:00:00Z,29.6350,-93.6417,2.0,273.3598323,38.2256877,-99999.0,'11111222,11111222,99999999' 
TABS,ioos:station:wmo:42051:1,2009-09-01T08:30:00Z,29.6350,-93.6417,2.0,275.2408111,40.6197809,-99999.0,'11111222,11111222,99999999' 
TABS,ioos:station:wmo:42051:1,2009-09-01T09:00:00Z,29.6350,-93.6417,2.0,275.012843,44.17895087,-99999.0,'11111222,11111222,99999999' 
TABS,ioos:station:wmo:42051:1,2009-09-01T09:30:00Z,29.6350,-93.6417,2.0,271.6969751,42.55865599,-99999.0,'11111222,11111222,99999999' 
TABS,ioos:station:wmo:42051:1,2009-09-01T10:00:00Z,29.6350,-93.6417,2.0,277.244422,39.41460262,-99999.0,'11111222,11111222,99999999' 
TABS,ioos:station:wmo:42051:1,2009-09-01T10:30:00Z,29.6350,-93.6417,2.0,277.1416808,39.33513696,-99999.0,'11111222,11111222,99999999' 
TABS,ioos:station:wmo:42051:1,2009-09-01T11:00:00Z,29.6350,-93.6417,2.0,271.6448938,37.28535637,-99999.0,'11111222,11111222,99999999' 
TABS,ioos:station:wmo:42051:1,2009-09-01T11:30:00Z,29.6350,-93.6417,2.0,273.6554554,34.51019559,-99999.0,'11111222,11111222,99999999' 
TABS,ioos:station:wmo:42051:1,2009-09-01T12:00:00Z,29.6350,-93.6417,2.0,277.5217626,30.48226534,-99999.0,'11111222,11111222,99999999' 
TABS,ioos:station:wmo:42051:1,2009-09-01T12:30:00Z,29.6350,-93.6417,2.0,280.7117759,34.91842207,-99999.0,'11111222,11111222,99999999' 
TABS,ioos:station:wmo:42051:1,2009-09-01T13:00:00Z,29.6350,-93.6417,2.0,280.5957508,27.51919512,-99999.0,'11111222,11111222,99999999' 
TABS,ioos:station:wmo:42051:1,2009-09-01T13:30:00Z,29.6350,-93.6417,2.0,276.3919977,33.23658978,-99999.0,'11111222,11111222,99999999' 
TABS,ioos:station:wmo:42051:1,2009-09-01T14:00:00Z,29.6350,-93.6417,2.0,269.5406798,33.71108126,-99999.0,'11111222,11111222,99999999' 
TABS,ioos:station:wmo:42051:1,2009-09-01T14:30:00Z,29.6350,-93.6417,2.0,279.0522873,30.06441418,-99999.0,'11111222,11111222,99999999' 
TABS,ioos:station:wmo:42051:1,2009-09-01T15:00:00Z,29.6350,-93.6417,2.0,279.9890357,29.1721871,-99999.0,'11111222,11111222,99999999' 
TABS,ioos:station:wmo:42051:1,2009-09-01T15:30:00Z,29.6350,-93.6417,2.0,279.8352286,35.65396191,-99999.0,'11111222,11111222,99999999' 
TABS,ioos:station:wmo:42051:1,2009-09-01T16:00:00Z,29.6350,-93.6417,2.0,279.5114441,34.79834623,-99999.0,'11111222,11111222,99999999' 
TABS,ioos:station:wmo:42051:1,2009-09-01T16:30:00Z,29.6350,-93.6417,2.0,274.9356128,31.61721683,-99999.0,'11111222,11111222,99999999' 
TABS,ioos:station:wmo:42051:1,2009-09-01T17:00:00Z,29.6350,-93.6417,2.0,281.2242505,28.71927924,-99999.0,'11111222,11111222,99999999' 
TABS,ioos:station:wmo:42051:1,2009-09-01T17:30:00Z,29.6350,-93.6417,2.0,275.4279442,27.59371305,-99999.0,'11111222,11111222,99999999' 
TABS,ioos:station:wmo:42051:1,2009-09-01T18:00:00Z,29.6350,-93.6417,2.0,283.4758438,25.27584816,-99999.0,'11111222,11111222,99999999' 
TABS,ioos:station:wmo:42051:1,2009-09-01T18:30:00Z,29.6350,-93.6417,2.0,278.7388852,28.36930912,-99999.0,'11111222,11111222,99999999' 
TABS,ioos:station:wmo:42051:1,2009-09-01T19:00:00Z,29.6350,-93.6417,2.0,279.889437,29.57948613,-99999.0,'11111222,11111222,99999999' 
TABS,ioos:station:wmo:42051:1,2009-09-01T19:30:00Z,29.6350,-93.6417,2.0,276.8588552,26.12695926,-99999.0,'11111222,11111222,99999999' 
TABS,ioos:station:wmo:42051:1,2009-09-01T20:00:00Z,29.6350,-93.6417,2.0,279.081847,28.19340526,-99999.0,'11111222,11111222,99999999' 
TABS,ioos:station:wmo:42051:1,2009-09-01T20:30:00Z,29.6350,-93.6417,2.0,282.5783646,24.01637983,-99999.0,'11111222,11111222,99999999' 
TABS,ioos:station:wmo:42051:1,2009-09-01T21:00:00Z,29.6350,-93.6417,2.0,276.7818962,14.48131555,-99999.0,'11111222,11111222,99999999' 
TABS,ioos:station:wmo:42051:1,2009-09-01T21:30:00Z,29.6350,-93.6417,2.0,268.6598877,10.69292289,-99999.0,'11111222,11111222,99999999' 
TABS,ioos:station:wmo:42051:1,2009-09-01T22:00:00Z,29.6350,-93.6417,2.0,270.8712186,15.79182383,-99999.0,'11111222,11111222,99999999' 
TABS,ioos:station:wmo:42051:1,2009-09-01T22:30:00Z,29.6350,-93.6417,2.0,266.2811919,9.560125522,-99999.0,'11133222,11111222,99999999' 
TABS,ioos:station:wmo:42051:1,2009-09-01T23:00:00Z,29.6350,-93.6417,2.0,268.6919708,9.202396427,-99999.0,'11133222,11111222,99999999' 
TABS,ioos:station:wmo:42051:1,2009-09-01T23:30:00Z,29.6350,-93.6417,2.0,281.0950364,12.00435338,-99999.0,'11111222,11111222,99999999' 
TABS,ioos:station:wmo:42051:1,2009-09-02T00:00:00Z,29.6350,-93.6417,2.0,283.4151439,7.155221869,-99999.0,'11133222,11111222,99999999' 
TABS,ioos:station:wmo:42051:1,2009-09-02T00:30:00Z,29.6350,-93.6417,2.0,273.4108083,6.892205743,-99999.0,'11133222,11111222,99999999' 
TABS,ioos:station:wmo:42051:1,2009-09-02T01:00:00Z,29.6350,-93.6417,2.0,275.0956123,7.318920685,-99999.0,'11133222,11111222,99999999' 
TABS,ioos:station:wmo:42051:1,2009-09-02T01:30:00Z,29.6350,-93.6417,2.0,260.1895506,7.042982323,-99999.0,'11133222,11111222,99999999' 
TABS,ioos:station:wmo:42051:1,2009-09-02T02:00:00Z,29.6350,-93.6417,2.0,260.5250703,7.715244649,-99999.0,'11133222,11111222,99999999' 
TABS,ioos:station:wmo:42051:1,2009-09-02T02:30:00Z,29.6350,-93.6417,2.0,266.2530489,9.029296761,-99999.0,'11133222,11111222,99999999' 
TABS,ioos:station:wmo:42051:1,2009-09-02T03:00:00Z,29.6350,-93.6417,2.0,271.9153675,9.875515176,-99999.0,'11133222,11111222,99999999' 
TABS,ioos:station:wmo:42051:1,2009-09-02T03:30:00Z,29.6350,-93.6417,2.0,268.7438214,9.582301394,-99999.0,'11133222,11111222,99999999' 
TABS,ioos:station:wmo:42051:1,2009-09-02T04:00:00Z,29.6350,-93.6417,2.0,265.8189063,9.876279664,-99999.0,'11133222,11111222,99999999' 
TABS,ioos:station:wmo:42051:1,2009-09-02T04:30:00Z,29.6350,-93.6417,2.0,252.9356528,9.780562356,-99999.0,'11133222,11111222,99999999' 
TABS,ioos:station:wmo:42051:1,2009-09-02T05:00:00Z,29.6350,-93.6417,2.0,263.3490466,14.67877379,-99999.0,'11111222,11111222,99999999' 
TABS,ioos:station:wmo:42051:1,2009-09-02T05:30:00Z,29.6350,-93.6417,2.0,267.8131421,13.62992296,-99999.0,'11111222,11111222,99999999' 
TABS,ioos:station:wmo:42051:1,2009-09-02T06:00:00Z,29.6350,-93.6417,2.0,276.4799183,14.5328318,-99999.0,'11111222,11111222,99999999' 
TABS,ioos:station:wmo:42051:1,2009-09-02T06:30:00Z,29.6350,-93.6417,2.0,277.0235458,11.85897972,-99999.0,'11111222,11111222,99999999' 
TABS,ioos:station:wmo:42051:1,2009-09-02T07:00:00Z,29.6350,-93.6417,2.0,276.1719057,11.62738578,-99999.0,'11111222,11111222,99999999' 
TABS,ioos:station:wmo:42051:1,2009-09-02T07:30:00Z,29.6350,-93.6417,2.0,259.776791,14.36809312,-99999.0,'11111222,11111222,99999999' 
TABS,ioos:station:wmo:42051:1,2009-09-02T08:00:00Z,29.6350,-93.6417,2.0,263.2445025,14.79269076,-99999.0,'11111222,11111222,99999999' 
TABS,ioos:station:wmo:42051:1,2009-09-02T08:30:00Z,29.6350,-93.6417,2.0,270.734445,14.83121708,-99999.0,'11111222,11111222,99999999' 
TABS,ioos:station:wmo:42051:1,2009-09-02T09:00:00Z,29.6350,-93.6417,2.0,265.4347595,15.07782809,-99999.0,'11111222,11111222,99999999' 
TABS,ioos:station:wmo:42051:1,2009-09-02T09:30:00Z,29.6350,-93.6417,2.0,262.1070914,13.98244971,-99999.0,'11111222,11111222,99999999' 
TABS,ioos:station:wmo:42051:1,2009-09-02T10:00:00Z,29.6350,-93.6417,2.0,262.4166819,16.14115547,-99999.0,'11111222,11111222,99999999' 
TABS,ioos:station:wmo:42051:1,2009-09-02T10:30:00Z,29.6350,-93.6417,2.0,264.594496,17.72882963,-99999.0,'11111222,11111222,99999999' 
TABS,ioos:station:wmo:42051:1,2009-09-02T11:00:00Z,29.6350,-93.6417,2.0,258.7217068,17.53866871,-99999.0,'11111222,11111222,99999999' 
TABS,ioos:station:wmo:42051:1,2009-09-02T11:30:00Z,29.6350,-93.6417,2.0,259.9418775,15.34583005,-99999.0,'11111222,11111222,99999999' 
TABS,ioos:station:wmo:42051:1,2009-09-02T12:00:00Z,29.6350,-93.6417,2.0,256.3590643,13.69631337,-99999.0,'11111222,11111222,99999999' 
TABS,ioos:station:wmo:42051:1,2009-09-02T12:30:00Z,29.6350,-93.6417,2.0,255.4861696,13.68676003,-99999.0,'11111222,11111222,99999999' 
TABS,ioos:station:wmo:42051:1,2009-09-02T13:00:00Z,29.6350,-93.6417,2.0,272.0029494,17.17048631,-99999.0,'11111222,11111222,99999999' 
TABS,ioos:station:wmo:42051:1,2009-09-02T13:30:00Z,29.6350,-93.6417,2.0,264.8425993,15.2416961,-99999.0,'11111222,11111222,99999999' 
TABS,ioos:station:wmo:42051:1,2009-09-02T14:00:00Z,29.6350,-93.6417,2.0,271.4671861,14.45473625,-99999.0,'11111222,11111222,99999999' 
TABS,ioos:station:wmo:42051:1,2009-09-02T14:30:00Z,29.6350,-93.6417,2.0,258.5872412,18.64871309,-99999.0,'11111222,11111222,99999999' 
TABS,ioos:station:wmo:42051:1,2009-09-02T15:00:00Z,29.6350,-93.6417,2.0,262.4551208,16.60373452,-99999.0,'11111222,11111222,99999999' 
TABS,ioos:station:wmo:42051:1,2009-09-02T15:30:00Z,29.6350,-93.6417,2.0,268.7683831,15.82365318,-99999.0,'11111222,11111222,99999999' 
TABS,ioos:station:wmo:42051:1,2009-09-02T16:00:00Z,29.6350,-93.6417,2.0,270.6438037,17.81112293,-99999.0,'11111222,11111222,99999999' 
TABS,ioos:station:wmo:42051:1,2009-09-02T16:30:00Z,29.6350,-93.6417,2.0,273.737255,18.25881979,-99999.0,'11111222,11111222,99999999' 
TABS,ioos:station:wmo:42051:1,2009-09-02T17:00:00Z,29.6350,-93.6417,2.0,272.6822437,18.38013058,-99999.0,'11111222,11111222,99999999' 
TABS,ioos:station:wmo:42051:1,2009-09-02T17:30:00Z,29.6350,-93.6417,2.0,267.6994005,23.91927256,-99999.0,'11111222,11111222,99999999' 
TABS,ioos:station:wmo:42051:1,2009-09-02T18:00:00Z,29.6350,-93.6417,2.0,275.0045899,20.17690759,-99999.0,'11111222,11111222,99999999' 
TABS,ioos:station:wmo:42051:1,2009-09-02T18:30:00Z,29.6350,-93.6417,2.0,270.0549103,21.03000951,-99999.0,'11111222,11111222,99999999' 
TABS,ioos:station:wmo:42051:1,2009-09-02T19:00:00Z,29.6350,-93.6417,2.0,267.3729365,21.60269659,-99999.0,'11111222,11111222,99999999' 
TABS,ioos:station:wmo:42051:1,2009-09-02T19:30:00Z,29.6350,-93.6417,2.0,269.6587067,20.17035696,-99999.0,'11111222,11111222,99999999' 
TABS,ioos:station:wmo:42051:1,2009-09-02T20:00:00Z,29.6350,-93.6417,2.0,255.7340289,17.5718468,-99999.0,'11111222,11111222,99999999' 
TABS,ioos:station:wmo:42051:1,2009-09-02T20:30:00Z,29.6350,-93.6417,2.0,254.1622121,19.67693574,-99999.0,'11111222,11111222,99999999' 
TABS,ioos:station:wmo:42051:1,2009-09-02T21:00:00Z,29.6350,-93.6417,2.0,256.9746875,22.67333676,-99999.0,'11111222,11111222,99999999' 
TABS,ioos:station:wmo:42051:1,2009-09-02T21:30:00Z,29.6350,-93.6417,2.0,260.98302,19.65284967,-99999.0,'11111222,11111222,99999999' 
TABS,ioos:station:wmo:42051:1,2009-09-02T22:00:00Z,29.6350,-93.6417,2.0,249.5107473,18.97004217,-99999.0,'11111222,11111222,99999999' 
TABS,ioos:station:wmo:42051:1,2009-09-02T22:30:00Z,29.6350,-93.6417,2.0,256.5384623,17.39795678,-99999.0,'11111222,11111222,99999999' 
TABS,ioos:station:wmo:42051:1,2009-09-02T23:00:00Z,29.6350,-93.6417,2.0,252.803536,21.20802914,-99999.0,'11111222,11111222,99999999' 
TABS,ioos:station:wmo:42051:1,2009-09-02T23:30:00Z,29.6350,-93.6417,2.0,249.4750707,19.16666116,-99999.0,'11111222,11111222,99999999' 
TABS,ioos:station:wmo:42051:1,2009-09-03T00:00:00Z,29.6350,-93.6417,2.0,253.3931462,18.92954569,-99999.0,'11111222,11111222,99999999' 
TABS,ioos:station:wmo:42051:1,2009-09-03T00:30:00Z,29.6350,-93.6417,2.0,253.2776213,12.05999171,-99999.0,'11111222,11111222,99999999' 
TABS,ioos:station:wmo:42051:1,2009-09-03T01:00:00Z,29.6350,-93.6417,2.0,260.7329935,15.40098698,-99999.0,'11111222,11111222,99999999' 
TABS,ioos:station:wmo:42051:1,2009-09-03T01:30:00Z,29.6350,-93.6417,2.0,268.1519731,11.47596619,-99999.0,'11111222,11111222,99999999' 
TABS,ioos:station:wmo:42051:1,2009-09-03T02:00:00Z,29.6350,-93.6417,2.0,259.0624739,9.645195695,-99999.0,'11133222,11111222,99999999' 
TABS,ioos:station:wmo:42051:1,2009-09-03T02:30:00Z,29.6350,-93.6417,2.0,272.1367142,13.94969534,-99999.0,'11111222,11111222,99999999' 
TABS,ioos:station:wmo:42051:1,2009-09-03T03:00:00Z,29.6350,-93.6417,2.0,268.732906,14.02342683,-99999.0,'11111222,11111222,99999999' 
TABS,ioos:station:wmo:42051:1,2009-09-03T03:30:00Z,29.6350,-93.6417,2.0,274.5033355,12.22774305,-99999.0,'11111222,11111222,99999999' 
TABS,ioos:station:wmo:42051:1,2009-09-03T04:00:00Z,29.6350,-93.6417,2.0,275.5475708,15.00024666,-99999.0,'11111222,11111222,99999999' 
TABS,ioos:station:wmo:42051:1,2009-09-03T04:30:00Z,29.6350,-93.6417,2.0,272.5614585,15.66564713,-99999.0,'11111222,11111222,99999999' 
TABS,ioos:station:wmo:42051:1,2009-09-03T05:00:00Z,29.6350,-93.6417,2.0,282.1269579,17.61301791,-99999.0,'11111222,11111222,99999999' 
TABS,ioos:station:wmo:42051:1,2009-09-03T05:30:00Z,29.6350,-93.6417,2.0,283.1974646,18.87857251,-99999.0,'11111222,11111222,99999999' 
TABS,ioos:station:wmo:42051:1,2009-09-03T06:00:00Z,29.6350,-93.6417,2.0,279.2580524,23.93171327,-99999.0,'11111222,11111222,99999999' 
TABS,ioos:station:wmo:42051:1,2009-09-03T06:30:00Z,29.6350,-93.6417,2.0,286.0397397,23.45297423,-99999.0,'11111222,11111222,99999999' 
TABS,ioos:station:wmo:42051:1,2009-09-03T07:00:00Z,29.6350,-93.6417,2.0,278.8175962,24.52988382,-99999.0,'11111222,11111222,99999999' 
TABS,ioos:station:wmo:42051:1,2009-09-03T07:30:00Z,29.6350,-93.6417,2.0,274.4717866,25.39729907,-99999.0,'11111222,11111222,99999999' 
TABS,ioos:station:wmo:42051:1,2009-09-03T08:00:00Z,29.6350,-93.6417,2.0,272.1342475,24.97731971,-99999.0,'11111222,11111222,99999999' 
TABS,ioos:station:wmo:42051:1,2009-09-03T08:30:00Z,29.6350,-93.6417,2.0,276.4317626,21.51540146,-99999.0,'11111222,11111222,99999999' 
TABS,ioos:station:wmo:42051:1,2009-09-03T09:00:00Z,29.6350,-93.6417,2.0,273.168644,19.17931438,-99999.0,'11111222,11111222,99999999' 
TABS,ioos:station:wmo:42051:1,2009-09-03T09:30:00Z,29.6350,-93.6417,2.0,264.6004797,16.47308411,-99999.0,'11111222,11111222,99999999' 
TABS,ioos:station:wmo:42051:1,2009-09-03T10:00:00Z,29.6350,-93.6417,2.0,273.1443047,17.68661924,-99999.0,'11111222,11111222,99999999' 
TABS,ioos:station:wmo:42051:1,2009-09-03T10:30:00Z,29.6350,-93.6417,2.0,268.6058569,24.25717626,-99999.0,'11111222,11111222,99999999' 
TABS,ioos:station:wmo:42051:1,2009-09-03T11:00:00Z,29.6350,-93.6417,2.0,270.1873991,21.45011422,-99999.0,'11111222,11111222,99999999' 
TABS,ioos:station:wmo:42051:1,2009-09-03T11:30:00Z,29.6350,-93.6417,2.0,265.9164144,16.71242053,-99999.0,'11111222,11111222,99999999' 
TABS,ioos:station:wmo:42051:1,2009-09-03T12:00:00Z,29.6350,-93.6417,2.0,270.7244217,11.87094773,-99999.0,'11111222,11111222,99999999' 
TABS,ioos:station:wmo:42051:1,2009-09-03T12:30:00Z,29.6350,-93.6417,2.0,273.38726,13.20306025,-99999.0,'11111222,11111222,99999999' 
TABS,ioos:station:wmo:42051:1,2009-09-03T13:00:00Z,29.6350,-93.6417,2.0,272.3307125,15.00240647,-99999.0,'11111222,11111222,99999999' 
TABS,ioos:station:wmo:42051:1,2009-09-03T13:30:00Z,29.6350,-93.6417,2.0,256.6089259,14.63795409,-99999.0,'11111222,11111222,99999999' 
TABS,ioos:station:wmo:42051:1,2009-09-03T14:00:00Z,29.6350,-93.6417,2.0,237.9718517,16.25400874,-99999.0,'11111222,11111222,99999999' 
TABS,ioos:station:wmo:42051:1,2009-09-03T14:30:00Z,29.6350,-93.6417,2.0,252.8997116,14.93000335,-99999.0,'11111222,11111222,99999999' 
TABS,ioos:station:wmo:42051:1,2009-09-03T15:00:00Z,29.6350,-93.6417,2.0,251.5102616,16.64939939,-99999.0,'11111222,11111222,99999999' 
TABS,ioos:station:wmo:42051:1,2009-09-03T15:30:00Z,29.6350,-93.6417,2.0,251.7537672,19.16350699,-99999.0,'11111222,11111222,99999999' 
TABS,ioos:station:wmo:42051:1,2009-09-03T16:00:00Z,29.6350,-93.6417,2.0,250.1741202,22.67388365,-99999.0,'11111222,11111222,99999999' 
TABS,ioos:station:wmo:42051:1,2009-09-03T16:30:00Z,29.6350,-93.6417,2.0,245.2087074,27.87924317,-99999.0,'11111222,11111222,99999999' 
TABS,ioos:station:wmo:42051:1,2009-09-03T17:00:00Z,29.6350,-93.6417,2.0,248.2475071,25.90450926,-99999.0,'11111222,11111222,99999999' 
TABS,ioos:station:wmo:42051:1,2009-09-03T17:30:00Z,29.6350,-93.6417,2.0,264.2941285,22.23012596,-99999.0,'11111222,11111222,99999999' 
TABS,ioos:station:wmo:42051:1,2009-09-03T18:00:00Z,29.6350,-93.6417,2.0,264.4617024,23.10785364,-99999.0,'11111222,11111222,99999999' 
TABS,ioos:station:wmo:42051:1,2009-09-03T18:30:00Z,29.6350,-93.6417,2.0,266.801014,22.04434168,-99999.0,'11111222,11111222,99999999' 
TABS,ioos:station:wmo:42051:1,2009-09-03T19:00:00Z,29.6350,-93.6417,2.0,275.8759896,23.15162629,-99999.0,'11111222,11111222,99999999' 
TABS,ioos:station:wmo:42051:1,2009-09-03T19:30:00Z,29.6350,-93.6417,2.0,271.5870885,24.91955457,-99999.0,'11111222,11111222,99999999' 
TABS,ioos:station:wmo:42051:1,2009-09-03T20:00:00Z,29.6350,-93.6417,2.0,278.3369304,26.69204001,-99999.0,'11111222,11111222,99999999' 
TABS,ioos:station:wmo:42051:1,2009-09-03T20:30:00Z,29.6350,-93.6417,2.0,275.5944734,25.4411635,-99999.0,'11111222,11111222,99999999' 
TABS,ioos:station:wmo:42051:1,2009-09-03T21:00:00Z,29.6350,-93.6417,2.0,279.8727797,29.86219684,-99999.0,'11111222,11111222,99999999' 
TABS,ioos:station:wmo:42051:1,2009-09-03T21:30:00Z,29.6350,-93.6417,2.0,273.9080963,28.90720498,-99999.0,'11111222,11111222,99999999' 
TABS,ioos:station:wmo:42051:1,2009-09-03T22:00:00Z,29.6350,-93.6417,2.0,279.4566163,30.85933408,-99999.0,'11111222,11111222,99999999' 
TABS,ioos:station:wmo:42051:1,2009-09-03T22:30:00Z,29.6350,-93.6417,2.0,276.7397025,27.26841396,-99999.0,'11111222,11111222,99999999' 
TABS,ioos:station:wmo:42051:1,2009-09-03T23:00:00Z,29.6350,-93.6417,2.0,273.0228981,24.84456077,-99999.0,'11111222,11111222,99999999' 
TABS,ioos:station:wmo:42051:1,2009-09-03T23:30:00Z,29.6350,-93.6417,2.0,271.6875403,20.71898164,-99999.0,'11111222,11111222,99999999' 
TABS,ioos:station:wmo:42051:1,2009-09-04T00:00:00Z,29.6350,-93.6417,2.0,276.6035042,20.69729451,-99999.0,'11111222,11111222,99999999' 
TABS,ioos:station:wmo:42051:1,2009-09-04T00:30:00Z,29.6350,-93.6417,2.0,268.0859581,17.06951962,-99999.0,'11111222,11111222,99999999' 
TABS,ioos:station:wmo:42051:1,2009-09-04T01:00:00Z,29.6350,-93.6417,2.0,270.8571144,26.75299049,-99999.0,'11111222,11111222,99999999' 
TABS,ioos:station:wmo:42051:1,2009-09-04T01:30:00Z,29.6350,-93.6417,2.0,277.3482457,24.23905114,-99999.0,'11111222,11111222,99999999' 
TABS,ioos:station:wmo:42051:1,2009-09-04T02:00:00Z,29.6350,-93.6417,2.0,282.2569633,23.74113729,-99999.0,'11111222,11111222,99999999' 
TABS,ioos:station:wmo:42051:1,2009-09-04T02:30:00Z,29.6350,-93.6417,2.0,273.2953502,25.40199205,-99999.0,'11111222,11111222,99999999' 
TABS,ioos:station:wmo:42051:1,2009-09-04T03:00:00Z,29.6350,-93.6417,2.0,282.5533668,23.14322795,-99999.0,'11111222,11111222,99999999' 
TABS,ioos:station:wmo:42051:1,2009-09-04T03:30:00Z,29.6350,-93.6417,2.0,285.3640183,24.08054817,-99999.0,'11111222,11111222,99999999' 
TABS,ioos:station:wmo:42051:1,2009-09-04T04:00:00Z,29.6350,-93.6417,2.0,290.8509017,25.96006934,-99999.0,'11111222,11111222,99999999' 
TABS,ioos:station:wmo:42051:1,2009-09-04T04:30:00Z,29.6350,-93.6417,2.0,300.9599887,23.87088813,-99999.0,'11111222,11111222,99999999' 
TABS,ioos:station:wmo:42051:1,2009-09-04T05:00:00Z,29.6350,-93.6417,2.0,296.825026,25.66137954,-99999.0,'11111222,11111222,99999999' 
TABS,ioos:station:wmo:42051:1,2009-09-04T05:30:00Z,29.6350,-93.6417,2.0,294.3164307,26.32538129,-99999.0,'11111222,11111222,99999999' 
TABS,ioos:station:wmo:42051:1,2009-09-04T06:00:00Z,29.6350,-93.6417,2.0,282.3201014,24.37121458,-99999.0,'11111222,11111222,99999999' 
TABS,ioos:station:wmo:42051:1,2009-09-04T06:30:00Z,29.6350,-93.6417,2.0,282.7269533,24.51220308,-99999.0,'11111222,11111222,99999999' 
TABS,ioos:station:wmo:42051:1,2009-09-04T07:00:00Z,29.6350,-93.6417,2.0,277.7983337,27.56489978,-99999.0,'11111222,11111222,99999999' 
TABS,ioos:station:wmo:42051:1,2009-09-04T07:30:00Z,29.6350,-93.6417,2.0,288.1278395,22.98060269,-99999.0,'11111222,11111222,99999999' 
TABS,ioos:station:wmo:42051:1,2009-09-04T08:00:00Z,29.6350,-93.6417,2.0,287.673197,21.87224726,-99999.0,'11111222,11111222,99999999' 
TABS,ioos:station:wmo:42051:1,2009-09-04T08:30:00Z,29.6350,-93.6417,2.0,284.1883854,16.48277889,-99999.0,'11111222,11111222,99999999' 
TABS,ioos:station:wmo:42051:1,2009-09-04T09:00:00Z,29.6350,-93.6417,2.0,280.0570279,15.69108346,-99999.0,'11111222,11111222,99999999' 
TABS,ioos:station:wmo:42051:1,2009-09-04T09:30:00Z,29.6350,-93.6417,2.0,278.660766,15.73945679,-99999.0,'11111222,11111222,99999999' 
TABS,ioos:station:wmo:42051:1,2009-09-04T10:00:00Z,29.6350,-93.6417,2.0,265.5983861,17.59187597,-99999.0,'11111222,11111222,99999999' 
TABS,ioos:station:wmo:42051:1,2009-09-04T10:30:00Z,29.6350,-93.6417,2.0,256.987814,17.49931713,-99999.0,'11111222,11111222,99999999' 
TABS,ioos:station:wmo:42051:1,2009-09-04T11:00:00Z,29.6350,-93.6417,2.0,266.4183466,14.56844878,-99999.0,'11111222,11111222,99999999' 
TABS,ioos:station:wmo:42051:1,2009-09-04T11:30:00Z,29.6350,-93.6417,2.0,255.5889568,14.10374773,-99999.0,'11111222,11111222,99999999' 
TABS,ioos:station:wmo:42051:1,2009-09-04T12:00:00Z,29.6350,-93.6417,2.0,257.6415848,12.00823884,-99999.0,'11111222,11111222,99999999' 
TABS,ioos:station:wmo:42051:1,2009-09-04T12:30:00Z,29.6350,-93.6417,2.0,250.970414,10.36650375,-99999.0,'11111222,11111222,99999999' 
TABS,ioos:station:wmo:42051:1,2009-09-04T13:00:00Z,29.6350,-93.6417,2.0,239.2599766,12.71671734,-99999.0,'11111222,11111222,99999999' 
TABS,ioos:station:wmo:42051:1,2009-09-04T13:30:00Z,29.6350,-93.6417,2.0,242.3953272,9.862682191,-99999.0,'11133222,11111222,99999999' 
TABS,ioos:station:wmo:42051:1,2009-09-04T14:00:00Z,29.6350,-93.6417,2.0,252.4887166,9.804335776,-99999.0,'11133222,11111222,99999999' 
TABS,ioos:station:wmo:42051:1,2009-09-04T14:30:00Z,29.6350,-93.6417,2.0,243.5843333,13.68925491,-99999.0,'11111222,11111222,99999999' 
TABS,ioos:station:wmo:42051:1,2009-09-04T15:00:00Z,29.6350,-93.6417,2.0,252.4718022,12.78352846,-99999.0,'11111222,11111222,99999999' 
TABS,ioos:station:wmo:42051:1,2009-09-04T15:30:00Z,29.6350,-93.6417,2.0,243.2393202,15.74648215,-99999.0,'11111222,11111222,99999999' 
TABS,ioos:station:wmo:42051:1,2009-09-04T16:00:00Z,29.6350,-93.6417,2.0,254.0054394,17.74699129,-99999.0,'11111222,11111222,99999999' 